Voltar ao catálogo

STARLINK-35109

AtivoComunicaçõesVLEO
NORAD 65642·PAYLOAD·🇺🇸 United States

Lançado Sep 18, 2025 de Cape Canaveral Space Force Station

Loading…

Próximas Passagens (próximas 24 horas)

TLE

AtualizadoSource: CelesTrak SupGP

Época: Sep 15, 2026, 03:31 UTC

1 65642C 25210W   26258.14701389  .00042242  00000+0  12481-2 0  2588
2 65642  53.1569 142.5182 0001303  84.3126 218.2278 15.34367516    10

Acompanhe STARLINK-35109 em tempo real com AllMySat

Download on the App Store